EFW8MJ LPMA-EGKK

Flight info

Callsign EFW8MJ
Flight time N/A
Altitude 34000
Route DEGUN1W DEGUN DCT RULET DCT GALPA DCT VABEM DCT TUNAV DCT IBIDO DCT DEMOS DCT KORUL DCT FEJAC DCT JSY DCT REVTU UP88 VASUX VASUX1G
Aircraft A321/M-SDE3FGIJ1KRWXY/SB1

Departure

Time 2026-05-04 15:14
Airport Cristiano Ronaldo International Airport (LPMA)

Arrival

Time N/A
Airport London Gatwick Airport (EGKK)
Time Latitude Longitude Altitude Speed Heading
2026-05-04 13:46 32.69359 -16.77661 169 ft 0 kts 137°
2026-05-04 15:03 32.69361 -16.77663 169 ft 3 kts 137°
2026-05-04 15:04 32.69380 -16.77684 169 ft 3 kts 139°
2026-05-04 15:04 32.69396 -16.77701 169 ft 4 kts 121°
2026-05-04 15:04 32.69398 -16.77721 169 ft 3 kts 46°
2026-05-04 15:04 32.69383 -16.77741 169 ft 1 kts 46°
2026-05-04 15:05 32.69382 -16.77741 169 ft 0 kts 46°
2026-05-04 15:08 32.69391 -16.77731 169 ft 8 kts 46°
2026-05-04 15:08 32.69450 -16.77658 169 ft 13 kts 46°
2026-05-04 15:08 32.69516 -16.77577 169 ft 14 kts 46°
2026-05-04 15:09 32.69585 -16.77492 169 ft 15 kts 46°
2026-05-04 15:09 32.69630 -16.77436 169 ft 14 kts 46°
2026-05-04 15:09 32.69702 -16.77346 170 ft 14 kts 46°
2026-05-04 15:10 32.69788 -16.77241 180 ft 3 kts 46°
2026-05-04 15:10 32.69803 -16.77222 181 ft 7 kts 46°
2026-05-04 15:10 32.69981 -16.77181 188 ft 15 kts 358°
2026-05-04 15:11 32.70064 -16.77125 187 ft 14 kts 40°
2026-05-04 15:11 32.70135 -16.77043 195 ft 15 kts 44°
2026-05-04 15:11 32.70209 -16.76957 196 ft 16 kts 45°
2026-05-04 15:11 32.70293 -16.76857 195 ft 15 kts 44°
2026-05-04 15:12 32.70375 -16.76819 187 ft 12 kts 13°
2026-05-04 15:12 32.70409 -16.76751 186 ft 11 kts 91°
2026-05-04 15:12 32.70441 -16.76679 193 ft 11 kts 44°
2026-05-04 15:12 32.70500 -16.76617 196 ft 11 kts 44°
2026-05-04 15:13 32.70577 -16.76527 196 ft 20 kts 44°
2026-05-04 15:13 32.70691 -16.76459 187 ft 16 kts 52°
2026-05-04 15:13 32.70656 -16.76430 196 ft 7 kts 223°
2026-05-04 15:13 32.70564 -16.76536 192 ft 52 kts 224°
2026-05-04 15:14 32.70144 -16.77026 200 ft 118 kts 225°
2026-05-04 15:14 32.69483 -16.77793 173 ft 168 kts 224°
2026-05-04 15:14 32.68653 -16.78805 747 ft 172 kts 223°
2026-05-04 15:14 32.67631 -16.79484 1446 ft 174 kts 190°
2026-05-04 15:15 32.66374 -16.79400 1783 ft 192 kts 173°
2026-05-04 15:15 32.64964 -16.79359 2000 ft 214 kts 181°
2026-05-04 15:15 32.63395 -16.79402 2193 ft 239 kts 182°
2026-05-04 15:16 32.59884 -16.79512 3361 ft 260 kts 183°
2026-05-04 15:16 32.58057 -16.79403 4135 ft 266 kts 168°
2026-05-04 15:16 32.55156 -16.76865 5487 ft 274 kts 119°
2026-05-04 15:17 32.54601 -16.74704 6089 ft 279 kts 94°
2026-05-04 15:17 32.55995 -16.70496 7261 ft 287 kts 40°
2026-05-04 15:17 32.57661 -16.69198 7828 ft 289 kts 28°
2026-05-04 15:18 32.59419 -16.68016 8425 ft 292 kts 28°
2026-05-04 15:18 32.61196 -16.66822 9025 ft 294 kts 28°
2026-05-04 15:18 32.62984 -16.65615 9633 ft 297 kts 28°
2026-05-04 15:19 32.66627 -16.63143 10382 ft 319 kts 28°
2026-05-04 15:19 32.68606 -16.61798 10500 ft 338 kts 28°
2026-05-04 15:19 32.72882 -16.58889 10853 ft 367 kts 28°
2026-05-04 15:20 32.75109 -16.57368 11306 ft 371 kts 28°
2026-05-04 15:20 32.77356 -16.55830 11806 ft 375 kts 28°
2026-05-04 15:20 32.79624 -16.54275 12297 ft 378 kts 28°
2026-05-04 15:20 32.81911 -16.52707 12799 ft 381 kts 28°
2026-05-04 15:21 32.84217 -16.51126 13294 ft 384 kts 28°
2026-05-04 15:21 32.86541 -16.49536 13831 ft 386 kts 28°
2026-05-04 15:21 32.91221 -16.46329 14738 ft 391 kts 28°
2026-05-04 15:22 32.93555 -16.44730 15178 ft 393 kts 28°
2026-05-04 15:22 32.95934 -16.43098 15621 ft 396 kts 28°
2026-05-04 15:22 33.00740 -16.39796 16500 ft 401 kts 28°
2026-05-04 15:23 33.03152 -16.38138 16922 ft 404 kts 28°
2026-05-04 15:23 33.05613 -16.36443 17352 ft 407 kts 28°
2026-05-04 15:23 33.08073 -16.34749 17756 ft 410 kts 28°
2026-05-04 15:23 33.10546 -16.33050 18175 ft 412 kts 28°
2026-05-04 15:24 33.15496 -16.29636 18884 ft 416 kts 28°
2026-05-04 15:24 33.20543 -16.26148 19533 ft 421 kts 27°
2026-05-04 15:25 33.23089 -16.24389 19846 ft 424 kts 27°
2026-05-04 15:25 33.25644 -16.22621 20162 ft 427 kts 27°
2026-05-04 15:25 33.28224 -16.20831 20508 ft 430 kts 27°
2026-05-04 15:26 33.33435 -16.17213 21184 ft 436 kts 27°
2026-05-04 15:26 33.36072 -16.15386 21496 ft 438 kts 27°
2026-05-04 15:26 33.41341 -16.11736 22128 ft 444 kts 27°
2026-05-04 15:27 33.44016 -16.09874 22445 ft 446 kts 27°
2026-05-04 15:27 33.49411 -16.06116 23063 ft 451 kts 27°
2026-05-04 15:28 33.54869 -16.02316 23659 ft 456 kts 27°
2026-05-04 15:28 33.57622 -16.00398 23902 ft 459 kts 27°
2026-05-04 15:28 33.63150 -15.96534 24459 ft 461 kts 27°
2026-05-04 15:29 33.65890 -15.94617 24733 ft 463 kts 27°
2026-05-04 15:30 33.77083 -15.86764 25780 ft 469 kts 27°
2026-05-04 15:30 33.85593 -15.80791 26506 ft 475 kts 27°
2026-05-04 15:31 33.91321 -15.76764 26969 ft 479 kts 27°
2026-05-04 15:31 33.94163 -15.74762 27198 ft 481 kts 27°
2026-05-04 15:32 34.02863 -15.68623 27883 ft 485 kts 27°
2026-05-04 15:32 34.08710 -15.64492 28274 ft 489 kts 27°
2026-05-04 15:33 34.14586 -15.60325 28621 ft 492 kts 27°
2026-05-04 15:34 34.23401 -15.54061 29327 ft 492 kts 27°
2026-05-04 15:34 34.26347 -15.51969 29638 ft 490 kts 26°
2026-05-04 15:34 34.32176 -15.47824 30341 ft 484 kts 26°
2026-05-04 15:35 34.37974 -15.43700 30742 ft 483 kts 26°
2026-05-04 15:35 34.40871 -15.41633 30930 ft 483 kts 26°
2026-05-04 15:35 34.43768 -15.39561 31108 ft 484 kts 26°
2026-05-04 15:36 34.49518 -15.35439 31476 ft 484 kts 26°
2026-05-04 15:36 34.52418 -15.33363 31655 ft 484 kts 26°
2026-05-04 15:36 34.55321 -15.31284 31836 ft 485 kts 26°
2026-05-04 15:37 34.58227 -15.29202 32002 ft 485 kts 26°
2026-05-04 15:37 34.61135 -15.27115 32174 ft 486 kts 26°
2026-05-04 15:37 34.64043 -15.25023 32356 ft 486 kts 26°
2026-05-04 15:37 34.66953 -15.22931 32520 ft 486 kts 26°
2026-05-04 15:38 34.69829 -15.20867 32679 ft 487 kts 26°
2026-05-04 15:38 34.72743 -15.18769 32856 ft 487 kts 26°
2026-05-04 15:38 34.75657 -15.16667 33021 ft 487 kts 26°
2026-05-04 15:38 34.78570 -15.14566 33197 ft 487 kts 26°
2026-05-04 15:39 34.81482 -15.12460 33386 ft 487 kts 25°
2026-05-04 15:39 34.84399 -15.10348 33590 ft 487 kts 25°
2026-05-04 15:39 34.90211 -15.06127 33921 ft 487 kts 25°
2026-05-04 15:40 34.93081 -15.04048 34102 ft 486 kts 25°
2026-05-04 15:40 34.98905 -14.99841 34167 ft 486 kts 25°
2026-05-04 15:41 35.04712 -14.95628 34166 ft 486 kts 26°